Home > Time Zones > World Clock > Weather > U.S.A. > Napa > Past weeks

Flag for U.S.A. Weather past 2 weeks in Napa, California, U.S.A.

Now
57 °F

Passing clouds.


Feels Like: 57 °F
Forecast: 56 / 80 °F
Wind: No wind

Location: Napa County Airport

Current Time: Sep 15, 2014 at 3:35:51 AM

Latest Report: Sep 15, 2014 at 2:54 AM


Visibility: 10 mi

Pressure: 29.82 "Hg

Humidity: 90%

Dew point: 54 °F

Location of NapaLocation

Historic Weather in Napa — Graph

°F

Napa temperature yesterday

Maximum temperature yesterday: 81 °F (at 3:54 PM)
Minimum temperature yesterday: 55 °F (at 1:54 AM)
Average temperature yesterday: 65 °F

Past Weeks' High & Low Weather Summary

 TemperatureHumidityPressure
High92 °F (Sep 10, 3:54 PM)100% (Aug 31, 5:54 AM)29.98 "Hg (Aug 31, 5:54 AM)
Low47 °F (Sep 7, 6:54 AM)24% (Sep 10, 3:54 PM)29.66 "Hg (Sep 3, 5:54 PM)
Average64 °F76%29.81 "Hg
* Reported Aug 31 1:54 AM — Sep 15 1:54 AM, Napa, Weather by CustomWeather, © 2014

Note: Actual official high and low records may vary slightly from our data, if they occured in-between our weather recording intervals... More about our weather records

Advertising

Napa weather history for previous 24 hours

 ConditionsComfort  
Time TempWeatherWind HumidityBarometerVisibility
1:54 AM
Sep 15
59 °FClear.6 mph87%29.81 "Hg10 mi
12:54 AM57 °FClear.5 mph90%29.80 "Hg10 mi
11:54 PM
Sep 14
58 °FClear.3 mph87%29.80 "Hg10 mi
10:54 PM60 °FClear.3 mph78%29.79 "Hg10 mi
9:54 PM60 °FClear.7 mph78%29.78 "Hg10 mi
8:54 PM63 °FClear.7 mph70%29.77 "Hg10 mi
7:54 PM66 °FSunny.No wind61%29.76 "Hg10 mi
6:54 PM72 °FSunny.8 mph61%29.75 "Hg10 mi
5:54 PM76 °FSunny.12 mph54%29.76 "Hg10 mi
4:54 PM79 °FSunny.10 mph45%29.75 "Hg10 mi
3:54 PM81 °FSunny.12 mph44%29.77 "Hg10 mi
2:54 PM78 °FSunny.8 mph48%29.78 "Hg10 mi
1:54 PM75 °FSunny.16 mph58%29.80 "Hg10 mi
12:54 PM76 °FSunny.9 mph52%29.81 "Hg10 mi
11:54 AM73 °FSunny.9 mph57%29.81 "Hg10 mi
10:54 AM69 °FSunny.5 mph63%29.82 "Hg10 mi
9:54 AM64 °FSunny.5 mph73%29.83 "Hg10 mi
8:54 AM61 °FSunny.6 mph83%29.83 "Hg10 mi
7:54 AM57 °FSunny.8 mph96%29.82 "Hg10 mi
6:54 AM56 °FPassing clouds.9 mph97%29.81 "Hg10 mi
5:54 AM56 °FClear.9 mph97%29.80 "Hg10 mi
4:54 AM56 °FClear.10 mph97%29.79 "Hg10 mi
3:54 AM56 °FClear.8 mph97%29.79 "Hg10 mi
Weather by CustomWeather, © 2014

See weather overviewHow to use our weather pages